Hourly Data Report for September 24, 2017

All times are specified in Local Standard Time (LST). Add 1 hour to adjust for Daylight Saving Time where and when it is observed.

ST. PETERS
PRINCE EDWARD ISLAND

46°27'01.000" N
62°34'33.000" W
29.70 m
8300562
71310
ZSP

Download Data

Hourly Data (September 2017)
Hourly Data Report for September 24, 2017
Temp Definition
°C
Dew Point Temp Definition
°C
Rel Hum Definition
%
Wind Dir Definition
10's deg

Wind Spd Definition
km/h
Visibility Definition
km
Stn Press Definition
kPa
Hmdx Definition


Wind Chill Definition


Weather Definition


TIME
00:00 14.5 10.3 76 6 11   101.39     LegendNANA
01:00 12.9 9.8 82 8 3   101.43     LegendNANA
02:00 11.3 9.3 88 10 2   101.46     LegendNANA
03:00 9.9 8.5 91 11 3   101.45     LegendNANA
04:00 10.9 9.8 93 8 4   101.47     LegendNANA
05:00 10.7 9.4 92 10 3   101.43     LegendNANA
06:00 10.2 9.3 94 8 4   101.48     LegendNANA
07:00 13.0 11.5 91 11 4   101.48     LegendNANA
08:00 16.3 12.4 78 11 3   101.54     LegendNANA
09:00 17.6 12.1 70 14 14   101.47     LegendNANA
10:00 18.3 11.3 64 13 9   101.46     LegendNANA
11:00 17.9 11.5 66 11 9   101.42     LegendNANA
12:00 17.5 11.9 69 10 6   101.34     LegendNANA
13:00 17.2 12.6 75 13 11   101.30     LegendNANA
14:00 17.2 12.3 73 14 17   101.14     LegendNANA
15:00 17.5 12.9 74 16 14   101.09     LegendNANA
16:00 17.7 13.7 78 15 11   101.13     LegendNANA
17:00 17.9 14.4 80 14 9   101.16     LegendNANA
18:00 17.6 14.8 84 17 4   101.17     LegendNANA
19:00 17.1 15.0 88 22 7   101.22     LegendNANA
20:00 17.9 15.0 83 29 10   101.24     LegendNANA
21:00 17.3 14.7 85 31 13   101.31     LegendNANA
22:00 16.6 14.7 89 30 10   101.29     LegendNANA
23:00 15.5 14.2 92 29 6   101.31     LegendNANA

Notes on Data Quality.

Legend

  • E = Estimated
  • M = Missing
  • NA = Not Available
  • ‡ = Partner data that is not subject to review by the National Climate Archives
Date modified: